TimeMST,TemperatureF,Dew PointF,Humidity,Sea Level PressureIn,VisibilityMPH,Wind Direction,Wind SpeedMPH,Gust SpeedMPH,PrecipitationIn,Events,Conditions,WindDirDegrees,DateUTC
12:48 AM,26.1,19.0,75,30.05,-9999.0,ENE,4.6,-,N/A,,Unknown,70,2013-01-09 07:48:00
1:48 AM,24.1,18.0,77,30.03,-9999.0,East,4.6,-,N/A,,Unknown,80,2013-01-09 08:48:00
2:48 AM,21.0,17.1,85,30.02,-9999.0,East,6.9,-,N/A,,Unknown,90,2013-01-09 09:48:00
3:48 AM,27.0,18.0,69,29.97,-9999.0,East,5.8,-,N/A,,Unknown,100,2013-01-09 10:48:00
4:48 AM,30.0,19.9,66,29.94,-9999.0,Calm,Calm,-,N/A,,Unknown,0,2013-01-09 11:48:00
5:48 AM,32.0,21.9,66,29.93,-9999.0,Calm,Calm,-,N/A,,Unknown,0,2013-01-09 12:48:00
6:48 AM,33.1,21.9,64,29.95,-9999.0,West,4.6,-,N/A,,Unknown,270,2013-01-09 13:48:00
7:48 AM,30.9,23.0,72,29.98,-9999.0,West,5.8,-,N/A,,Unknown,270,2013-01-09 14:48:00
8:48 AM,35.1,26.1,70,29.98,-9999.0,West,6.9,-,N/A,,Unknown,270,2013-01-09 15:48:00
9:48 AM,42.1,27.0,55,29.97,-9999.0,WSW,17.3,-,N/A,,Unknown,240,2013-01-09 16:48:00
10:48 AM,45.0,27.0,49,29.96,-9999.0,SW,20.7,25.3,N/A,,Unknown,230,2013-01-09 17:48:00
11:48 AM,46.0,27.0,47,29.92,-9999.0,SW,19.6,24.2,N/A,,Unknown,230,2013-01-09 18:48:00
12:48 PM,45.0,28.9,53,29.89,-9999.0,SW,6.9,-,N/A,,Unknown,230,2013-01-09 19:48:00
1:48 PM,45.0,28.9,53,29.88,-9999.0,Calm,Calm,-,N/A,,Unknown,0,2013-01-09 20:48:00
2:48 PM,42.1,28.9,60,29.86,-9999.0,SSW,3.5,-,N/A,,Unknown,210,2013-01-09 21:48:00
3:48 PM,39.0,30.0,70,29.86,-9999.0,SE,5.8,-,N/A,,Unknown,130,2013-01-09 22:48:00
4:48 PM,41.0,28.0,60,29.81,-9999.0,Calm,Calm,-,N/A,,Unknown,0,2013-01-09 23:48:00
5:48 PM,41.0,27.0,57,29.79,-9999.0,Variable,3.5,-,N/A,,Unknown,0,2013-01-10 00:48:00
6:48 PM,43.0,27.0,53,29.77,-9999.0,Variable,5.8,-,N/A,,Unknown,0,2013-01-10 01:48:00
7:48 PM,41.0,27.0,57,29.73,-9999.0,Calm,Calm,-,N/A,,Unknown,0,2013-01-10 02:48:00
8:48 PM,37.9,28.0,68,29.70,-9999.0,Calm,Calm,-,N/A,,Unknown,0,2013-01-10 03:48:00
9:48 PM,37.0,28.0,70,29.70,-9999.0,Calm,Calm,-,N/A,,Unknown,0,2013-01-10 04:48:00
10:48 PM,32.0,28.0,85,29.68,-9999.0,ENE,3.5,-,N/A,,Unknown,60,2013-01-10 05:48:00
11:48 PM,35.1,27.0,72,29.66,-9999.0,Calm,Calm,-,N/A,,Unknown,0,2013-01-10 06:48:00